Location: Newark
(43.5167°N, 11.4833°E)
Time: 07:19:39
(UTC+00:00)

ISS - Visible Passes

Search period start: 20 January 2020 00:00
Search period end: 30 January 2020 00:00
Orbit: 415 x 421 km, 51.6° (Epoch: 20 January)

Date Brightness Start Highest point End Pass type
(mag) Time Alt. Az. Time Alt. Az. Time Alt. Az.
20 Jan -2.1 17:23:43 10° S 17:26:14 20° SE 17:26:49 19° ESE visible
20 Jan -0.4 18:59:24 10° WSW 18:59:47 13° WSW 18:59:47 13° WSW visible
21 Jan -3.2 18:11:22 10° SW 18:14:04 55° SW 18:14:04 55° SW visible
22 Jan -3.5 17:23:30 10° SW 17:26:46 52° SE 17:28:17 27° ENE visible
22 Jan -0.5 19:00:38 10° W 19:01:13 14° W 19:01:13 14° W visible
23 Jan -2.8 18:12:21 10° W 18:15:21 41° NW 18:15:21 41° NW visible
24 Jan -3.5 17:24:09 10° WSW 17:27:29 62° NNW 17:29:25 23° NE visible
24 Jan -0.4 19:02:01 10° WNW 19:02:21 12° WNW 19:02:21 12° WNW visible
25 Jan -2.0 18:13:39 10° WNW 18:16:22 25° NNW 18:16:22 25° NNW visible
26 Jan -2.5 17:25:16 10° W 17:28:21 32° NNW 17:30:20 17° NE visible
26 Jan -0.4 19:03:15 10° NW 19:03:15 10° NW 19:03:15 10° NW visible
27 Jan -1.7 18:14:57 10° NW 18:17:11 20° NNW 18:17:11 20° NNW visible
28 Jan -2.0 17:26:35 10° WNW 17:29:18 22° N 17:31:06 15° NNE visible
29 Jan -1.7 18:15:58 10° NW 18:17:55 19° NNW 18:17:55 19° NNW visible
